Location: Tilbury Hill Observatory
(42.0982°N, 76.1481°W)
Time: 09:23:18
(UTC-04:00)

N. Korean satellite - Visible Passes

Search period start: 25 September 2018 00:00
Search period end: 05 October 2018 00:00
Orbit: 458 x 511 km, 97.2° (Epoch: 24 September)

Date Brightness Start Highest point End Pass type
(mag) Time Alt. Az. Time Alt. Az. Time Alt. Az.
26 Sep 10.6 06:21:23 10° ENE 06:22:41 11° E 06:23:59 10° ESE visible
27 Sep 9.9 19:39:20 10° SW 19:41:33 16° W 19:43:49 10° NW visible
28 Sep 8.9 19:13:52 10° SSW 19:17:03 31° W 19:20:18 10° NNW visible
30 Sep 10.8 06:18:05 10° E 06:18:41 10° E 06:19:18 10° E visible
01 Oct 9.8 19:35:03 10° SW 19:37:31 18° W 19:40:03 10° NW visible
02 Oct 8.6 19:09:43 10° SSW 19:13:01 35° W 19:16:23 10° NNW visible
03 Oct 10.0 06:36:35 10° NE 06:39:13 18° E 06:41:51 10° SE visible
04 Oct 10.6 19:57:51 10° W 19:58:02 10° W 19:58:14 10° W visible
